Charlotte, MI

3:24 AM EST on December 10, 2016 (GMT -0500)
Charlotte

Weather History for KFPK - December, 2013

Change the Weather History Date:

Sunday, December 22, 2013

  Actual Average (KLAN) Record (KLAN)
Temperature  
Mean Temperature 32 °F -  
Max Temperature 32 °F 31 °F 57 °F (1957)
Min Temperature 32 °F 17 °F -15 °F (1870)
Degree Days  
Heating Degree Days 33    
Moisture  
Dew Point 30 °F    
Average Humidity 93    
Maximum Humidity 95    
Minimum Humidity 92    
Precipitation  
Precipitation 0.00 in - - ()
Sea Level Pressure  
Sea Level Pressure 29.58 in    
Wind  
Wind Speed 3 mph (NE)    
Max Wind Speed 6 mph    
Max Gust Speed -    
Visibility 4 miles    
Events Rain , Snow    
Averages and records for this station are not official NWS values.
T = Trace of Precipitation, MM = Missing Value Source: NWS Daily Summary

Daily Weather History Graph

Daily Weather History Graph

Search for Another Location

Airport or City:

Trip Planner

Search our weather history database for the weather conditions in past years. The results will help you decide how hot, cold, wet, or windy it might be!

Date:

Astronomy

Dec. 22, 2013 Rise Set
Actual Time 8:06 AM EST 5:09 PM EST
Civil Twilight 7:34 AM EST 5:41 PM EST
Nautical Twilight 6:58 AM EST 6:17 PM EST
Astronomical Twilight 6:24 AM EST 6:51 PM EST
Moon 10:27 PM EST (12/22) 10:56 AM EST (12/22)
Length of Visible Light 10h 07m
Length of Day
9h 03m
Waning Gibbous, 77% of the Moon is Illuminated
Dec 22
Waning Gibbous
Dec 25
Last Quarter
Jan 1
New
Jan 7
First Quarter
Jan 15
Full

Hourly Weather History & Observations

Time (EST) Temp. Windchill Dew Point Humidity Pressure Visibility Wind Dir Wind Speed Gust Speed Precip Events Conditions
12:15 AM 32.0 °F 28.7 °F 29.8 °F 92% 29.65 in 7.0 mi NNE 3.5 mph - N/A Rain Light Rain
12:35 AM 32.0 °F 28.7 °F 29.8 °F 92% 29.63 in 5.0 mi NE 3.5 mph - N/A Snow Light Snow
12:55 AM 32.0 °F 28.7 °F 30.0 °F 92% 29.62 in 5.0 mi NE 3.5 mph - N/A Rain Light Rain
1:15 AM 32.0 °F 28.7 °F 30.0 °F 92% 29.61 in 7.0 mi NNE 3.5 mph - N/A   Overcast
1:35 AM 32.0 °F 26.4 °F 29.8 °F 92% 29.53 in 7.0 mi NE 5.8 mph - N/A   Overcast
1:55 AM 32.0 °F - 30.0 °F 92% 29.60 in 7.0 mi Calm Calm - N/A   Overcast
2:15 AM 32.0 °F 28.7 °F 30.0 °F 92% 29.59 in 7.0 mi NE 3.5 mph - N/A   Overcast
2:35 AM 32.0 °F - 30.7 °F 95% 29.64 in 3.0 mi Calm Calm - N/A Rain Rain
2:55 AM 32.0 °F - 30.2 °F 93% 29.61 in 2.0 mi Calm Calm - N/A Snow Light Snow
3:15 AM 32.0 °F 28.7 °F 30.2 °F 93% 29.56 in 4.0 mi North 3.5 mph - N/A Rain Light Rain
3:35 AM 32.0 °F 28.7 °F 30.0 °F 92% 29.60 in 4.0 mi NNE 3.5 mph - N/A Snow Light Snow
3:55 AM 32.0 °F 28.7 °F 30.2 °F 93% 29.58 in 3.0 mi NNE 3.5 mph - N/A Rain Light Rain
4:18 AM 32.0 °F 28.7 °F 30.2 °F 93% 29.56 in 3.0 mi NE 3.5 mph - N/A   Drizzle
4:37 AM 32.0 °F 28.7 °F 30.2 °F 93% 29.52 in 4.0 mi NE 3.5 mph - N/A Snow Light Snow
4:57 AM 32.0 °F - 30.2 °F 93% 29.55 in 3.0 mi Calm Calm - N/A Snow Snow
5:17 AM 32.0 °F - 30.2 °F 93% 29.54 in 3.0 mi Calm Calm - N/A   Light Drizzle
5:37 AM 32.0 °F - 30.2 °F 93% 29.55 in 3.0 mi Calm Calm - N/A Snow Light Snow
5:57 AM 32.0 °F - 30.2 °F 93% 29.56 in 4.0 mi Calm Calm - N/A   Drizzle
6:17 AM 32.0 °F - 30.2 °F 93% 29.56 in 3.0 mi Calm Calm - N/A Snow Snow